ARSAT 1

Last updated on Thu Oct 30 2025 00:02:49 GMT+0000 (Coordinated Universal Time)

1 40272U 14062B 25302.46254302 -.00000250 00000+0 00000+0 0 9992 2 40272 0.0407 68.8546 0001742 139.7157 284.2039 1.00270445 40300
UTC large
Height (km)
Speed (km/s)
/
Latitude / Longitude
Inclination (degrees)
Orbital Period (minutes)
Azimuth
Elevation
Range (km)
Doppler Factor

Next 0 passes for location: London (51.5072 / 0.1276)

Sorry there are no passes over London.